Location: Champignolles
(47.0543°N, 4.5663°E)
Time: 06:44:23
(UTC+00:00)

ISS - Visible Passes

Search period start: 26 February 2021 00:00
Search period end: 08 March 2021 00:00
Orbit: 417 x 422 km, 51.6° (Epoch: 26 February)

Date Brightness Start Highest point End Pass type
(mag) Time Alt. Az. Time Alt. Az. Time Alt. Az.
26 Feb -3.9 04:37:43 80° W 04:37:52 86° NNW 04:41:15 10° ENE visible
27 Feb -1.5 03:52:10 26° ENE 03:52:10 26° ENE 03:53:46 10° ENE visible
27 Feb -3.0 05:25:08 17° WNW 05:27:24 41° N 05:30:37 10° ENE visible
28 Feb -3.4 04:39:31 47° NW 04:39:50 49° NNW 04:43:08 10° ENE visible
01 Mar -1.7 03:53:52 28° NE 03:53:52 28° NE 03:55:39 10° ENE visible
01 Mar -2.7 05:26:49 13° WNW 05:29:29 35° N 05:32:37 10° ENE visible
02 Mar -2.8 04:41:08 32° NW 04:41:52 37° N 04:45:02 10° ENE visible
03 Mar -1.9 03:55:25 29° NE 03:55:25 29° NE 03:57:28 10° ENE visible
03 Mar -2.8 05:28:23 10° WNW 05:31:31 40° N 05:34:43 10° E visible
04 Mar -0.3 03:09:43 12° ENE 03:09:43 12° ENE 03:09:57 10° ENE visible
04 Mar -2.6 04:42:40 26° NW 04:43:54 36° N 04:47:03 10° ENE visible
05 Mar -2.1 03:56:57 32° NNE 03:56:57 32° NNE 03:59:24 10° ENE visible
05 Mar -3.3 05:30:06 10° WNW 05:33:26 60° NNE 05:36:46 10° E visible
06 Mar -0.4 03:11:15 13° ENE 03:11:15 13° ENE 03:11:46 10° ENE visible
06 Mar -3.0 04:44:12 25° NW 04:45:50 47° NNE 04:49:06 10° E visible
07 Mar -2.5 03:58:32 39° NNE 03:58:32 39° NNE 04:01:25 10° E visible
07 Mar -3.7 05:31:50 10° WNW 05:35:11 70° SSW 05:38:32 10° SE visible
